Observations for Trim Patrick St
| Time | AQI | Temp °C | Hum % | Pres Pa | CO μg/m³ | H₂S μg/m³ | NO μg/m³ | NO₂ μg/m³ | O₃ μg/m³ | SO₂ μg/m³ | PM1 μg/m³ | PM2.5 μg/m³ | PM10 μg/m³ |
|---|---|---|---|---|---|---|---|---|---|---|---|---|---|
| Friday 7 August 2026 | |||||||||||||
| 21:58 | 3 | 19 | 56 | 70,225 | 0 | 19.39 | 1.13 | 51.49 | 30.41 | 5.24 | 2.86 | 8.29 | 9.12 |
| 21:57 | 3 | 19 | 56 | 70,117 | 0 | 18.55 | 1.11 | 53.1 | 27.09 | 5.13 | 3.71 | 9.04 | 9.94 |
| 21:56 | 3 | 19.1 | 56 | 70,027 | 0 | 19.62 | 1.12 | 54.16 | 24.6 | 6.04 | 3.71 | 8.31 | 9.15 |
| 21:55 | 3 | 19.1 | 55 | 69,940 | 0 | 19.34 | 1.14 | 56.55 | 25.87 | 4.82 | 2.86 | 7.6 | 8.36 |
| 21:54 | 3 | 19.1 | 55 | 69,828 | 0 | 19.94 | 1.13 | 46.43 | 33.96 | 5.26 | 3.71 | 8.36 | 9.2 |
| 21:53 | 3 | 19.2 | 55 | 69,732 | 0 | 20.33 | 1.15 | 62.05 | 26.92 | 4.95 | 2.86 | 8.37 | 9.21 |
| 21:52 | 3 | 19.2 | 55 | 69,604 | 0 | 18.92 | 1.16 | 40.43 | 37.51 | 5.42 | 2.86 | 7.62 | 8.38 |
| 21:51 | 3 | 19.3 | 55 | 69,557 | 0 | 19.89 | 1.17 | 51.83 | 30.84 | 5.09 | 2.86 | 8.38 | 9.21 |
| 21:44 | 3 | 19.6 | 54 | 69,191 | 0 | 17.66 | 1.14 | 37.78 | 41.86 | 5.73 | 2.86 | 7.69 | 8.46 |
| 21:43 | 3 | 19.6 | 54 | 69,181 | 0 | 18.97 | 1.14 | 38.18 | 41.63 | 6.1 | 2 | 7.7 | 8.47 |
| 21:42 | 3 | 19.7 | 53 | 69,139 | 0 | 19.58 | 1.16 | 48.36 | 38.52 | 6.08 | 2.86 | 7.75 | 8.53 |
| 21:41 | 3 | 19.7 | 53 | 69,114 | 0 | 16.92 | 1.16 | 36.7 | 39.78 | 5.97 | 3.71 | 8.51 | 9.36 |
| 21:40 | 3 | 19.8 | 52 | 69,110 | 0 | 18.37 | 1.18 | 43.32 | 34.68 | 6.11 | 2 | 7.05 | 7.75 |
| 21:39 | 3 | 19.8 | 52 | 69,100 | 0 | 18.63 | 1.16 | 46.17 | 33.13 | 5.92 | 2.86 | 7.78 | 8.56 |
| 21:38 | 3 | 19.9 | 53 | 69,090 | 0 | 20.05 | 1.17 | 48.06 | 36.83 | 6.44 | 4.57 | 9.28 | 10.21 |
| 21:37 | 3 | 19.9 | 52 | 69,078 | 0 | 20.24 | 1.19 | 49.23 | 26.23 | 5.88 | 4.57 | 9.36 | 10.3 |
| 21:36 | 3 | 20 | 52 | 69,055 | 0 | 22.13 | 1.17 | 56.78 | 27.98 | 6.49 | 2.86 | 7.77 | 8.55 |
| 21:35 | 3 | 20 | 53 | 69,027 | 0 | 21.53 | 1.19 | 56.79 | 31 | 6.17 | 2.86 | 8.52 | 9.37 |
| 21:34 | 3 | 20.1 | 52 | 69,021 | 0 | 20.29 | 1.23 | 49.37 | 35.16 | 6.14 | 3.71 | 8.55 | 9.41 |
| 21:32 | 3 | 20.2 | 52 | 69,004 | 0 | 21.95 | 1.26 | 48.41 | 38.46 | 6.53 | 3.71 | 9.32 | 10.25 |